Location: Basse Occidentale du Courleau
(48.3833°N, 4.8333°W)
Time: 04:24:46
(UTC+00:00)

ERS-1 Rocket - Pass Details

Date: 05 July 2020
Orbit: 752 x 758 km, 98.5° (Epoch: 11 August)

Event Time Altitude Azimuth Distance (km) Brightness Sun altitude
Exits shadow 22:36:51 12° 201° (SSW) 2,163 4.9 -15.0°
Maximum altitude 22:41:04 34° 264° (W) 1,229 4.2 -15.3°
Drops below altitude 10° 22:45:41 10° 329° (NNW) 2,298 6.8 -15.6°
Sets 22:48:11 0° 339° (NNW) 3,228 8.1 -15.8°
